When you browse on this site, cookies collect data to enhance your experience and personalize the content and advertising you see.
Visit our Privacy Policy to learn more. By continuing to use the site, you agree to this use of cookies and data.
  • In United Kingdom
  • List of Countries
  • For 7 days
  • Water Temperature
  • Weather Map
  • Weather Widgets
  • user-avatar
    Login

    Hourly Weather Lowech

    Today, 1 June, Monday

    Time Temperature Precipitation Wind Pressure Humidity
    00:00 +11°C° 0 mm 3 mps 733 mmHg 79%
    01:00 +10°C° 0 mm 3 mps 733 mmHg 81%
    02:00 +10°C° 0 mm 3 mps 733 mmHg 82%
    03:00 +9°C° 0 mm 3 mps 733 mmHg 84%
    04:00 +9°C° 0 mm 2 mps 733 mmHg 86%
    05:00 +8°C° 0 mm 2 mps 733 mmHg 88%
    06:00 +10°C° 0 mm 3 mps 733 mmHg 83%
    07:00 +12°C° 0 mm 3 mps 733 mmHg 78%
    08:00 +13°C° 0 mm 4 mps 733 mmHg 73%
    09:00 +14°C° 0 mm 4 mps 733 mmHg 70%
    10:00 +15°C° 0 mm 4 mps 734 mmHg 67%
    11:00 +16°C° 0 mm 5 mps 734 mmHg 65%
    12:00 +17°C° 0 mm 5 mps 733 mmHg 65%
    13:00 +17°C° 0 mm 5 mps 733 mmHg 64%
    14:00 +17°C° 0 mm 5 mps 732 mmHg 64%
    15:00 +18°C° 0.1 mm 4 mps 732 mmHg 66%
    16:00 +18°C° 0.1 mm 4 mps 732 mmHg 67%
    17:00 +18°C° 0.1 mm 4 mps 732 mmHg 69%
    18:00 +17°C° 0.1 mm 3 mps 732 mmHg 75%
    19:00 +14°C° 0.1 mm 3 mps 732 mmHg 81%
    20:00 +13°C° 0.1 mm 3 mps 732 mmHg 87%
    21:00 +12°C° 0.1 mm 3 mps 732 mmHg 88%
    22:00 +11°C° 0.1 mm 3 mps 732 mmHg 89%
    23:00 +11°C° 0.1 mm 3 mps 733 mmHg 89%

    Tomorrow, 2 June, Tuesday

    Time Temperature Precipitation Wind Pressure Humidity
    00:00 +12°C° 0 mm 2 mps 732 mmHg 89%
    01:00 +12°C° 0 mm 2 mps 732 mmHg 89%
    02:00 +12°C° 0 mm 2 mps 732 mmHg 89%
    03:00 +10°C° 0 mm 2 mps 732 mmHg 89%
    04:00 +10°C° 0 mm 2 mps 732 mmHg 89%
    05:00 +10°C° 0 mm 3 mps 732 mmHg 89%
    06:00 +11°C° 0 mm 3 mps 732 mmHg 86%
    07:00 +12°C° 0 mm 4 mps 732 mmHg 82%
    08:00 +13°C° 0 mm 5 mps 732 mmHg 79%
    09:00 +14°C° 0 mm 5 mps 732 mmHg 74%
    10:00 +15°C° 0 mm 5 mps 732 mmHg 69%
    11:00 +16°C° 0 mm 6 mps 732 mmHg 64%
    12:00 +17°C° 0.3 mm 6 mps 732 mmHg 65%
    13:00 +17°C° 0.3 mm 6 mps 731 mmHg 66%
    14:00 +17°C° 0.3 mm 6 mps 731 mmHg 67%
    15:00 +16°C° 0.4 mm 6 mps 731 mmHg 70%
    16:00 +16°C° 0.4 mm 6 mps 731 mmHg 72%
    17:00 +15°C° 0.4 mm 6 mps 731 mmHg 74%
    18:00 +14°C° 0.2 mm 5 mps 731 mmHg 77%
    19:00 +12°C° 0.2 mm 4 mps 731 mmHg 80%
    20:00 +11°C° 0.2 mm 3 mps 732 mmHg 83%
    21:00 +10°C° 0 mm 3 mps 732 mmHg 83%
    22:00 +9°C° 0 mm 3 mps 732 mmHg 83%
    23:00 +9°C° 0 mm 3 mps 732 mmHg 83%

    Day after tomorrow, 3 June, Wednesday

    Time Temperature Precipitation Wind Pressure Humidity
    00:00 +8°C° 0 mm 3 mps 732 mmHg 83%
    01:00 +8°C° 0 mm 2 mps 732 mmHg 83%
    02:00 +8°C° 0 mm 2 mps 732 mmHg 82%
    03:00 +7°C° 0 mm 2 mps 732 mmHg 83%
    04:00 +7°C° 0 mm 2 mps 732 mmHg 83%
    05:00 +7°C° 0 mm 2 mps 732 mmHg 84%
    06:00 +9°C° 0 mm 2 mps 732 mmHg 79%
    07:00 +12°C° 0 mm 2 mps 732 mmHg 74%
    08:00 +14°C° 0 mm 2 mps 732 mmHg 69%
    09:00 +15°C° 0 mm 2 mps 732 mmHg 65%
    10:00 +16°C° 0 mm 2 mps 732 mmHg 60%
    11:00 +18°C° 0 mm 2 mps 732 mmHg 56%
    12:00 +18°C° 0.2 mm 2 mps 732 mmHg 55%
    13:00 +19°C° 0.2 mm 2 mps 731 mmHg 54%
    14:00 +19°C° 0.2 mm 2 mps 731 mmHg 53%
    15:00 +20°C° 0.1 mm 1 mps 731 mmHg 52%
    16:00 +20°C° 0.1 mm 1 mps 731 mmHg 52%
    17:00 +20°C° 0.1 mm 1 mps 731 mmHg 52%
    18:00 +19°C° 0 mm 1 mps 731 mmHg 58%
    19:00 +16°C° 0 mm 1 mps 731 mmHg 64%
    20:00 +14°C° 0 mm 1 mps 731 mmHg 70%
    21:00 +13°C° 0 mm 1 mps 732 mmHg 72%
    22:00 +12°C° 0 mm 1 mps 732 mmHg 74%
    23:00 +12°C° 0 mm 1 mps 732 mmHg 75%

    4 June, Thursday

    Time Temperature Precipitation Wind Pressure Humidity
    00:00 +11°C° 0 mm 1 mps 732 mmHg 76%
    01:00 +11°C° 0 mm 1 mps 732 mmHg 76%
    02:00 +11°C° 0 mm 1 mps 732 mmHg 76%
    03:00 +11°C° 0 mm 1 mps 732 mmHg 77%
    04:00 +11°C° 0 mm 1 mps 732 mmHg 77%
    05:00 +11°C° 0 mm 1 mps 732 mmHg 78%
    06:00 +13°C° 0 mm 1 mps 732 mmHg 73%
    07:00 +15°C° 0 mm 1 mps 733 mmHg 69%
    08:00 +19°C° 0 mm 1 mps 733 mmHg 64%
    09:00 +20°C° 0 mm 1 mps 733 mmHg 60%
    10:00 +22°C° 0 mm 1 mps 733 mmHg 57%
    11:00 +23°C° 0 mm 2 mps 733 mmHg 53%
    12:00 +24°C° 0 mm 2 mps 733 mmHg 52%
    13:00 +25°C° 0 mm 2 mps 733 mmHg 50%
    14:00 +25°C° 0 mm 3 mps 733 mmHg 49%
    15:00 +26°C° 0 mm 2 mps 733 mmHg 49%
    16:00 +26°C° 0 mm 1 mps 733 mmHg 50%
    17:00 +26°C° 0 mm 1 mps 733 mmHg 50%
    18:00 +24°C° 0 mm 1 mps 733 mmHg 57%
    19:00 +21°C° 0 mm 1 mps 733 mmHg 64%
    20:00 +18°C° 0 mm 2 mps 733 mmHg 71%
    21:00 +18°C° 0 mm 2 mps 733 mmHg 72%
    22:00 +17°C° 0 mm 2 mps 734 mmHg 73%
    23:00 +16°C° 0 mm 2 mps 734 mmHg 74%

    5 June, Friday

    Time Temperature Precipitation Wind Pressure Humidity
    00:00 +16°C° 0 mm 2 mps 734 mmHg 73%
    01:00 +16°C° 0 mm 2 mps 734 mmHg 72%
    02:00 +16°C° 0 mm 2 mps 734 mmHg 72%
    03:00 +16°C° 0 mm 2 mps 734 mmHg 72%
    04:00 +16°C° 0 mm 2 mps 734 mmHg 73%
    05:00 +15°C° 0 mm 2 mps 734 mmHg 73%
    06:00 +18°C° 0 mm 2 mps 734 mmHg 71%
    07:00 +20°C° 0 mm 2 mps 734 mmHg 69%
    08:00 +23°C° 0 mm 1 mps 735 mmHg 66%
    09:00 +24°C° 0 mm 1 mps 735 mmHg 60%
    10:00 +26°C° 0 mm 2 mps 735 mmHg 53%
    11:00 +28°C° 0 mm 2 mps 735 mmHg 46%
    12:00 +28°C° 0 mm 2 mps 735 mmHg 46%
    13:00 +29°C° 0 mm 2 mps 735 mmHg 46%
    14:00 +29°C° 0 mm 2 mps 735 mmHg 46%
    15:00 +29°C° 0 mm 2 mps 735 mmHg 48%
    16:00 +29°C° 0 mm 1 mps 735 mmHg 51%
    17:00 +29°C° 0 mm 1 mps 735 mmHg 53%
    18:00 +27°C° 0 mm 1 mps 735 mmHg 59%
    19:00 +25°C° 0 mm 2 mps 734 mmHg 66%
    20:00 +23°C° 0 mm 2 mps 734 mmHg 72%
    21:00 +21°C° 0.1 mm 2 mps 735 mmHg 73%
    22:00 +20°C° 0.1 mm 2 mps 735 mmHg 73%
    23:00 +20°C° 0.1 mm 2 mps 735 mmHg 74%

    6 June, Saturday

    Time Temperature Precipitation Wind Pressure Humidity
    00:00 +19°C° 0 mm 2 mps 735 mmHg 74%
    01:00 +19°C° 0 mm 2 mps 735 mmHg 73%
    02:00 +19°C° 0 mm 2 mps 735 mmHg 73%
    03:00 +19°C° 0 mm 2 mps 735 mmHg 73%
    04:00 +19°C° 0 mm 2 mps 735 mmHg 72%
    05:00 +19°C° 0 mm 2 mps 735 mmHg 72%
    06:00 +22°C° 0 mm 1 mps 735 mmHg 69%
    07:00 +24°C° 0 mm 1 mps 736 mmHg 66%
    08:00 +26°C° 0 mm 1 mps 736 mmHg 64%
    09:00 +27°C° 0 mm 1 mps 736 mmHg 60%
    10:00 +28°C° 0 mm 2 mps 736 mmHg 56%
    11:00 +30°C° 0 mm 2 mps 735 mmHg 52%
    12:00 +31°C° 0 mm 2 mps 735 mmHg 50%
    13:00 +32°C° 0 mm 2 mps 735 mmHg 48%
    14:00 +32°C° 0 mm 2 mps 734 mmHg 47%
    15:00 +32°C° 0 mm 2 mps 734 mmHg 50%
    16:00 +32°C° 0 mm 2 mps 733 mmHg 53%
    17:00 +31°C° 0 mm 2 mps 733 mmHg 56%
    18:00 +29°C° 0 mm 2 mps 732 mmHg 61%
    19:00 +27°C° 0 mm 2 mps 732 mmHg 66%
    20:00 +25°C° 0 mm 2 mps 732 mmHg 71%
    21:00 +25°C° 0 mm 2 mps 732 mmHg 70%
    22:00 +24°C° 0 mm 2 mps 732 mmHg 68%
    23:00 +24°C° 0 mm 2 mps 732 mmHg 67%
    Show more